Location: eljas
(40.1958°N, 6.8661°W)
Time: 19:01:30
(UTC+02:00)

Daily predictions for brighter satellites

Satellite Brightness Start Highest point End
(mag) Time Altitude Azimuth Time Altitude Azimuth Time Altitude Azimuth
H-2A R/B 3.6 22:26:34 10° S 22:30:17 50° W 22:33:58 10° NNW
Hubble Space Telescope 2.9 22:30:20 10° S 22:30:59 10° SSE 22:31:38 10° SSE
Cosmos 923 Rocket 4.1 22:26:59 10° NNW 22:32:12 81° WSW 22:37:24 10° SSE
USA 186 3.0 22:31:13 10° SSW 22:33:14 27° W 22:35:19 10° NW
SL-23 DEB 4.2 22:28:55 10° NW 22:34:48 79° NE 22:38:23 10° ESE
ATLAS 2AS CENTAUR R/B 4.0 22:30:55 10° SSE 22:36:11 21° ESE 22:41:44 10° ENE
Cosmos 1500 Rocket 4.3 22:32:17 10° SSW 22:36:35 57° W 22:40:58 10° N
Cosmos 1726 3.7 22:34:24 10° NNE 22:37:18 21° ENE 22:40:12 10° SE
Cosmos 1898 Rocket 4.2 22:32:49 10° SSE 22:37:24 33° E 22:42:03 10° NE
H-2A R/B 4.3 22:36:37 10° ENE 22:37:25 10° ENE 22:38:12 10° NE
Cosmos 2151 2.9 22:37:19 10° S 22:41:29 70° E 22:45:41 10° NNE
Cosmos 2058 3.4 22:37:57 10° SSE 22:41:47 40° E 22:45:38 10° NNE
Aureole 3 4.3 22:36:03 10° S 22:42:20 60° E 22:47:20 10° NNE
Cosmos 1437 Rocket 3.6 22:38:44 10° NNW 22:42:27 50° W 22:46:12 10° S
Cosmos 2219 3.2 22:36:46 10° SSW 22:42:31 78° ESE 22:48:16 10° NNE
ATLAS 3B R/B 4.5 22:39:07 10° NNW 22:44:17 21° NNE 22:49:13 10° E
OTV 4 1.6 22:43:23 10° SW 22:45:53 24° SSE 22:48:23 10° ESE
Cosmos 2237 Rocket 3.8 22:41:40 10° N 22:46:02 22° NE 22:50:21 10° ESE
Meteor 1-4 Rocket 4.3 22:44:10 10° NNE 22:46:54 19° ENE 22:49:26 11° ESE
Cosmos 2322 Rocket 4.4 22:43:53 10° NW 22:48:02 22° W 22:52:11 10° SSW
ALOS 4.0 22:45:00 10° SSW 22:49:10 33° W 22:53:23 10° NNW
Delta 2 Rocket 3.7 22:47:08 10° WSW 22:50:42 38° S 22:53:38 12° ESE
Cosmos 2322 4.2 22:47:13 10° NNW 22:52:50 60° WSW 22:58:24 10° S
Cosmos 2150 Rocket 4.3 22:47:38 10° S 22:52:51 49° ESE 22:58:07 10° NNE
Cosmos 405 4.0 22:50:53 10° NNW 22:54:23 47° W 22:57:50 10° S
Cosmos 2360 Rocket 2.8 22:49:56 10° NNW 22:55:26 55° WSW 23:00:56 10° S
OAO 2 Rocket 3.9 22:51:41 10° WSW 22:56:41 42° S 23:01:41 10° E
NOSS 3-1 (C) 3.4 22:52:40 10° SSW 22:58:30 87° SE 23:05:00 10° NE
Cosmos 1939 Rocket 2.9 22:55:37 10° S 22:59:32 81° WSW 23:03:25 10° NNW
Cosmos 1437 4.0 23:01:26 10° SSW 23:04:35 44° WNW 23:07:45 10° N
ERS-1 Rocket 3.7 23:01:37 10° S 23:06:31 52° W 23:11:26 10° NNW
deb Chang Zheng 4 4.0 23:02:23 10° N 23:06:42 67° WNW 23:11:00 10° SSW
Sich 1 3.3 23:04:03 10° SSE 23:08:18 49° E 23:12:33 10° NNE
Cosmos 1151 Rocket 4.3 23:07:02 10° NNW 23:11:05 39° W 23:15:08 10° SSW
Tiangong 1 1.3 23:10:06 10° W 23:13:12 67° NNW 23:16:16 10° ENE
Envisat 3.1 23:08:13 10° S 23:13:17 76° WSW 23:18:24 10° NNW
Cosmos 1633 Rocket 3.1 23:11:33 10° S 23:15:49 57° E 23:20:06 10° NNE
Meteor 1-27 4.2 23:10:59 10° N 23:16:41 80° E 23:21:48 13° SSE
Cosmos 1271 Rocket 3.3 23:13:51 10° N 23:17:32 42° ENE 23:19:49 20° SE
Cosmos 1626 3.7 23:18:03 17° ESE 23:19:03 19° E 23:21:45 10° NE
CZ-4 SHROUD 3.2 23:17:50 17° S 23:20:08 85° WSW 23:23:16 10° NNW
Cosmos 2242 Rocket 3.9 23:17:09 10° N 23:21:34 53° E 23:24:35 19° SSE
YAOGAN 6 2.6 23:21:30 20° SSE 23:23:50 65° ENE 23:27:24 10° N
Cosmos 2227 Rocket 2.5 23:18:58 10° S 23:24:17 44° ESE 23:29:38 10° NE
USA 32 4.2 23:22:07 10° N 23:27:18 54° E 23:30:52 20° SSE
ERBS 2.2 23:24:56 10° SW 23:28:25 81° SE 23:31:55 10° NE
DELTA 2 R/B(2) 3.0 23:27:09 10° W 23:28:50 82° S 23:29:36 34° E
USA 245 2.4 23:28:43 38° ESE 23:29:09 43° ENE 23:31:20 10° N
CZ-4C R/B 4.4 23:28:47 20° ESE 23:30:00 24° ENE 23:32:52 10° NNE
MetOp-A 4.2 23:26:18 14° SSE 23:30:55 84° WSW 23:36:19 10° NNW
Cosmos 1703 3.3 23:28:31 20° SSE 23:31:04 56° E 23:34:54 10° NNE
Meteor 2-11 Rocket 4.5 23:24:58 10° N 23:31:10 87° W 23:36:37 13° S
Cosmos 1937 Rocket 3.4 23:26:26 10° SSW 23:31:39 77° ESE 23:36:52 10° NNE
SL-14 R/B 3.5 23:28:36 10° SSW 23:32:33 72° W 23:36:35 10° N
Cosmos 1805 Rocket 4.4 23:29:07 10° SSW 23:33:26 52° W 23:37:48 10° N
Cosmos 990 Rocket 4.0 23:32:51 10° S 23:37:54 61° ESE 23:42:59 10° NNE
Cosmos 220 Rocket 4.0 23:34:13 10° SSW 23:38:36 89° WNW 23:43:05 10° NNE
SL-16 R/B 3.6 23:36:59 10° N 23:41:45 27° NE 23:45:02 16° ESE
Cosmos 1241 Rocket 4.4 23:35:51 10° SSW 23:41:59 72° ESE 23:48:14 10° NE
ARGOS 3.1 23:40:12 22° SSE 23:43:45 75° ENE 23:49:09 10° N
Cosmos 2333 Rocket 2.3 23:40:34 10° NNW 23:46:21 72° ENE 23:49:41 26° SE
SPOT 5 3.7 23:42:18 12° S 23:46:22 44° W 23:51:02 10° NNW
Cosmos 1300 4.0 23:43:56 10° NNW 23:47:30 36° W 23:50:34 13° SSW
Cosmos 292 Rocket 3.9 23:42:50 10° NNW 23:47:35 71° WSW 23:50:25 24° S
CZ-4B R/B 3.6 23:44:06 10° NNE 23:49:23 82° WNW 23:54:31 10° SSW
DELTA 2 DEB (DPAF) 4.5 23:47:39 29° SE 23:49:40 52° ENE 23:54:03 10° N
H-2A R/B 4.2 23:46:24 10° SSW 23:50:00 23° W 23:53:37 10° NW
Cosmos 2297 Rocket 2.4 23:46:47 18° S 23:50:45 51° ESE 23:56:13 10° NNE
